Location: Brunembert
(50.7122°N, 1.8935°E)
Time: 04:55:56
(UTC+00:00)

Cosmos 1933 Rocket - Pass Details

Date: 22 April 2021
Orbit: 606 x 631 km, 82.5° (Epoch: 06 May)

Event Time Altitude Azimuth Distance (km) Brightness Sun altitude
Rises 23:42:32 0° 348° (NNW) 2,898 8.3 -26.7°
Reaches altitude 10° 23:44:47 10° 346° (NNW) 1,984 7.1 -26.7°
Enters shadow 23:48:19 55° 325° (NW) 738 4.1 -26.7°
